[[{"header":{"parameterUnit":"m.s-1","parameterCategory":1,"la1":30.2992,"la2":30.254,"lo1":-89.0895,"lo2":-89.0443,"dy":0.0025,"dx":0.0025,"nx":19,"ny":19,"refTime":"2026-04-10T03:00:00:Z","depth":0,"parameterNumber":2,"parameterNumberName":"U-component_of_WINDS"},"data":[0,0,0,-4.2389,-4.239,-4.2422,-4.2422,-4.2502,-4.2503,0,0,0,0,0,0,0,0,0,0,0,-4.2402,-4.2403,-4.2388,-4.239,-4.2422,-4.2422,-4.2502,-4.2503,0,0,0,0,0,0,0,0,0,0,0,-4.2401,-4.2403,-4.2404,-4.239,-4.2422,-4.2422,-4.2501,-4.2463,0,0,0,0,0,0,0,0,0,0,-4.2425,-4.2459,-4.2402,-4.2404,-4.239,-4.2422,-4.2422,-4.2461,-4.2466,-4.2503,0,-4.2543,0,-4.2524,-4.2511,-4.2511,0,0,0,-4.2373,-4.2456,-4.2444,-4.2405,-4.2391,-4.2422,-4.2403,-4.2463,-4.2469,-4.251,-4.2543,-4.2545,-4.2526,-4.2511,-4.2512,-4.2786,-4.2788,0,0,-4.2371,-4.242,-4.244,-4.2449,-4.2446,-4.2402,-4.2404,-4.2466,-4.2505,-4.2544,-4.2546,-4.2527,-4.2512,-4.2513,-4.2784,-4.2786,0,0,0,-4.2377,-4.2419,-4.2405,-4.2447,-4.245,-4.2403,-4.2406,-4.2503,-4.2494,-4.2547,-4.2528,-4.2513,-4.2514,-4.2781,-4.2785,-4.2934,0,0,0,-4.2376,-4.2423,-4.2405,-4.2435,-4.2449,-4.2476,-4.2442,-4.249,-4.2495,-4.2528,-4.2513,-4.2515,-4.2779,-4.2783,-4.2925,-4.2996,0,0,0,-4.2392,-4.2424,-4.2437,-4.2438,-4.2453,-4.2474,-4.2468,-4.249,-4.2485,-4.2511,-4.2516,-4.2777,-4.2782,-4.2917,-4.2982,-4.3082,0,0,0,-4.2423,-4.2569,-4.244,-4.2596,-4.2454,-4.2567,-4.2467,-4.2549,-4.259,-4.2513,-4.2779,-4.2784,-4.2914,-4.2974,-4.3073,-4.3173,-4.322,0,0,-4.2634,-4.2596,-4.2684,-4.2569,-4.2718,-4.2558,-4.2728,-4.2719,-4.2678,-4.2752,-4.2758,-4.2928,-4.2981,-4.308,-4.3466,-4.3503,0,0,0,-4.2767,-4.283,-4.2859,-4.29,-4.2898,-4.2902,-4.2862,-4.2859,-4.292,-4.2726,-4.299,-4.302,-4.3076,-4.3121,-4.3153,-4.3198,-4.2808,-4.2807,-4.2807,-4.3133,-4.3073,-4.3214,-4.3158,-4.32,-4.3159,-4.3187,-4.3176,-4.3102,-4.3166,-4.3187,-4.3428,-4.3484,-4.3507,-4.3555,-4.3236,-4.3237,-4.3237,-4.3237,-4.3435,-4.3516,-4.3416,-4.3517,-4.3453,-4.3538,-4.3505,-4.345,-4.352,-4.3407,-4.3453,-4.3334,-4.355,-4.3588,-4.3248,-4.3246,-4.3245,-4.3244,-4.3243,-4.3667,-4.3695,-4.369,-4.3745,-4.3794,-4.3733,-4.3805,-4.3744,-4.3687,-4.3733,-4.3749,-4.3746,-4.3735,-4.3745,-4.3746,-4.3747,-4.3748,-4.3748,-4.3749,-4.3909,-4.3898,-4.3966,-4.3978,-4.3997,-4.4015,-4.3977,-4.3995,-4.3998,-4.3948,-4.3948,-4.3869,-4.3583,-4.3511,-4.3761,-4.3759,-4.3757,-4.3756,-4.3755,-4.4235,-4.4152,-4.4257,-4.4277,-4.4286,-4.4339,-4.4262,-4.4303,-4.4309,-4.4347,-4.4259,-4.4057,-4.4014,-4.3988,-4.3928,-4.4271,-4.4271,-4.4271,-4.4271,-4.443,-4.4403,-4.4496,-4.4532,-4.456,-4.4502,-4.4623,-4.4596,-4.4555,-4.4555,-4.4498,-4.4414,-4.4391,-4.4361,-4.4327,-4.427,-4.4693,-4.4693,-4.4693,-4.4627,-4.46,-4.4714,-4.4673,-4.4677,-4.4681,-4.4794,-4.4839,-4.4776,-4.4709,-4.4554,-4.4537,-4.4401,-4.436,-4.4288,-4.4237,-4.4132,0,0]},{"header":{"parameterUnit":"m.s-1","parameterCategory":1,"la1":30.2992,"la2":30.254,"lo1":-89.0895,"lo2":-89.0443,"dy":0.0025,"dx":0.0025,"nx":19,"ny":19,"refTime":"2026-04-10T03:00:00:Z","depth":0,"parameterNumber":3,"parameterNumberName":"V-component_of_WINDS"},"data":[0,0,0,2.3198,2.3199,2.3246,2.3246,2.3288,2.3288,0,0,0,0,0,0,0,0,0,0,0,2.3175,2.3174,2.3198,2.3199,2.3246,2.3246,2.3288,2.3288,0,0,0,0,0,0,0,0,0,0,0,2.3175,2.3174,2.3174,2.3199,2.3246,2.3246,2.3288,2.3259,0,0,0,0,0,0,0,0,0,0,2.3216,2.3185,2.3174,2.3174,2.32,2.3246,2.3246,2.3258,2.3261,2.3259,0,2.3257,0,2.3273,2.329,2.329,0,0,0,2.3206,2.3182,2.3204,2.3174,2.32,2.3246,2.3227,2.3259,2.3263,2.3263,2.3258,2.326,2.3274,2.329,2.329,2.3265,2.3264,0,0,2.3203,2.3177,2.3202,2.3206,2.3199,2.3225,2.3228,2.3262,2.3253,2.3258,2.3261,2.3275,2.329,2.3291,2.3265,2.3264,0,0,0,2.3191,2.3175,2.3197,2.3204,2.3214,2.3226,2.323,2.3252,2.3261,2.3262,2.3275,2.329,2.3291,2.3266,2.3265,2.3218,0,0,0,2.319,2.3168,2.3195,2.3179,2.3213,2.3233,2.3219,2.3259,2.3263,2.3275,2.329,2.3291,2.3266,2.3265,2.322,2.3199,0,0,0,2.3175,2.3166,2.317,2.3178,2.3197,2.3234,2.3245,2.326,2.3271,2.329,2.3291,2.3266,2.3265,2.3222,2.3202,2.3184,0,0,0,2.315,2.3126,2.3169,2.3147,2.3197,2.3205,2.3245,2.3252,2.3263,2.3291,2.3266,2.3265,2.3223,2.3205,2.3186,2.3163,2.3152,0,0,2.3105,2.3119,2.3109,2.3149,2.3143,2.32,2.3187,2.322,2.3245,2.3256,2.3256,2.3219,2.3203,2.3185,2.3098,2.3088,0,0,0,2.3086,2.3078,2.3082,2.3092,2.3118,2.3139,2.3178,2.3191,2.3202,2.3246,2.3209,2.32,2.3191,2.3181,2.3173,2.3166,2.326,2.326,2.326,2.2982,2.3017,2.3003,2.3044,2.3053,2.3095,2.3105,2.3129,2.3161,2.3151,2.3154,2.3097,2.3085,2.3079,2.3072,2.3146,2.3146,2.3146,2.3146,2.2918,2.2912,2.2957,2.2959,2.2996,2.2998,2.3037,2.306,2.3066,2.3098,2.3091,2.3122,2.3068,2.3063,2.3143,2.3143,2.3143,2.3144,2.3144,2.2852,2.2856,2.2874,2.2893,2.2903,2.2946,2.2951,2.2985,2.3016,2.301,2.3017,2.3017,2.3022,2.3011,2.3011,2.3011,2.3011,2.301,2.301,2.2777,2.2799,2.2799,2.2827,2.2839,2.2859,2.2902,2.2914,2.2935,2.2959,2.2959,2.2991,2.3057,2.3072,2.3007,2.3008,2.3008,2.3009,2.3009,2.2696,2.2721,2.2721,2.2733,2.277,2.2778,2.2822,2.2844,2.2859,2.286,2.2894,2.2938,2.2954,2.2961,2.2973,2.2887,2.2887,2.2887,2.2887,2.264,2.2654,2.2663,2.2679,2.27,2.2741,2.2739,2.2773,2.2811,2.2822,2.284,2.286,2.2866,2.2879,2.2887,2.29,2.2797,2.2797,2.2797,2.2593,2.261,2.2602,2.2642,2.2674,2.27,2.2699,2.2716,2.2764,2.2794,2.2832,2.2835,2.2868,2.2877,2.2905,2.2917,2.294,0,0]}]]